Location: Lasqueti Island Observatory
(49.4855°N, 124.2726°W)
Time: 02:30:30
(UTC-07:00)

Daily predictions for brighter satellites

Satellite Brightness Start Highest point End
(mag) Time Altitude Azimuth Time Altitude Azimuth Time Altitude Azimuth
H-2A R/B 3.9 00:00:04 10° NE 00:03:38 25° E 00:05:06 21° SE
Meteor 1-26 Rocket 4.5 00:01:51 10° NNW 00:07:25 64° W 00:11:11 22° S
Cosmos 44 4.0 00:11:51 26° S 00:14:21 41° ESE 00:19:27 10° NE
Cosmos 1689 Rocket 3.5 00:14:14 25° ESE 00:15:27 33° ENE 00:18:28 10° N
GEOS 3 Rocket 3.9 00:11:25 16° ESE 00:15:34 67° NE 00:20:44 10° NW
Cosmos 1825 4.5 00:16:12 11° ESE 00:17:19 13° E 00:19:02 10° ENE
COS B Rocket 4.1 00:14:02 10° N 00:17:49 49° W 00:20:20 21° SSW
Aureole 2 Rocket 3.3 00:19:53 10° NW 00:22:52 35° WSW 00:23:50 29° SW
In-Cosmos 22 Rocket 4.3 00:19:18 22° SSW 00:23:12 87° WNW 00:29:04 10° NNE
Meteor 2-10 Rocket 3.7 00:17:47 10° NNW 00:23:26 87° ENE 00:26:48 26° SSE
Cosmos 1733 Rocket 3.3 00:24:01 31° SSE 00:25:56 55° E 00:30:20 10° NNE
ATLAS 2AS CENTAUR R/B 3.6 00:20:34 10° WSW 00:28:14 62° NW 00:36:22 10° NE
CZ-4C R/B 3.0 00:28:17 39° SSE 00:29:31 86° ENE 00:33:13 10° NNW
ATLAS 3B R/B 4.0 00:26:05 10° WNW 00:31:32 25° WSW 00:35:10 16° SSW
Cosmos 2154 Rocket 4.3 00:29:22 25° SSE 00:32:58 55° E 00:39:04 10° NNE
Cosmos 1378 Rocket 4.4 00:28:51 10° N 00:32:59 39° ENE 00:35:05 24° SE
Okean 1-7 4.4 00:33:28 10° NNW 00:37:10 29° W 00:39:27 18° SW
Meteor 2-3 Rocket 3.9 00:33:25 22° SSW 00:37:17 75° WNW 00:43:00 10° N
Cosmos 2263 Rocket 3.4 00:36:37 21° SE 00:38:41 26° ESE 00:43:20 10° NE
Coronas F rocket 1.4 00:39:20 57° ESE 00:39:24 58° E 00:42:04 10° NNE
Cosmos 2227 Rocket 4.2 00:36:20 10° WSW 00:41:07 27° NW 00:45:56 10° NNE
Sich 1 Rocket 4.0 00:40:46 31° SSE 00:42:35 50° E 00:47:00 10° NNE
Cosmos 1238 Rocket 3.1 00:39:41 10° N 00:43:28 47° ENE 00:44:32 34° SE
Cosmos 2184 Rocket 4.1 00:39:56 21° SSW 00:44:12 71° WNW 00:50:23 10° N
ATLAS 5 CENTAUR R/B 4.4 00:40:28 10° NW 00:45:10 26° NNE 00:50:11 10° ENE
CZ-4C R/B 2.9 00:38:51 10° NW 00:45:45 70° SW 00:50:45 23° SSE
FALCON 9 R/B 4.1 00:37:02 10° W 00:48:05 23° SW 00:50:20 20° SSW
Meteor 1-10 Rocket 4.4 00:43:52 10° NNW 00:49:49 74° W 00:53:08 28° S
USA 238 DEB 4.4 00:43:25 10° NW 00:49:50 39° WSW 00:53:20 24° SSW
USA 238 4.4 00:43:31 10° NW 00:49:57 39° WSW 00:53:27 24° SSW
ALOS 2 2.6 00:49:17 34° S 00:51:08 70° WSW 00:55:33 10° NNW
Cosmos 2084 Rocket 3.2 00:49:35 21° SW 00:52:05 75° NW 00:55:55 10° NE
CZ-2C R/B 3.6 00:47:29 10° NNE 00:52:10 32° E 00:54:24 23° SE
SL-16 R/B 4.2 00:49:50 10° WNW 00:53:11 16° W 00:56:17 11° SW
Cosmos 1356 Rocket 3.3 00:55:32 37° S 00:57:06 90° SW 01:01:15 10° NNE
ASTEX 1 3.4 00:55:17 10° N 01:00:11 75° W 01:02:40 29° SSW
SeaSat 1 3.1 00:59:57 28° SSW 01:01:57 42° WSW 01:06:39 10° NW
CENTAUR R/B 3.8 00:56:22 10° NW 01:03:40 52° NE 01:11:37 10° ESE
Cosmos 921 Rocket 2.8 01:02:26 35° SSW 01:04:08 86° ESE 01:08:24 10° NNE
Cosmos 2227 4.5 00:59:41 17° SW 01:04:08 68° WNW 01:09:50 10° NNE
Cosmos 1782 3.1 01:00:15 10° NNW 01:04:09 55° W 01:05:31 35° SSW
Cosmos 962 Rocket 4.5 01:03:20 28° S 01:06:44 75° E 01:12:53 10° NNE
Cosmos 44 Rocket 4.3 01:01:59 10° WSW 01:07:02 49° NW 01:12:09 10° NNE
Cosmos 1782 Rocket 4.3 01:05:24 29° SE 01:07:03 41° E 01:11:12 10° NNE
Cosmos 2297 Rocket 4.3 01:03:02 10° W 01:07:39 25° NW 01:12:17 10° NNE
Cosmos 2341 Rocket 4.0 01:07:27 27° S 01:11:08 81° E 01:17:32 10° N
Cosmos 1674 Rocket 4.2 01:07:12 10° NNW 01:11:27 46° W 01:13:16 29° SSW
COSMOS 2406 4.1 01:06:14 10° NNW 01:11:49 46° NE 01:17:10 11° SE
CZ-4B R/B 2.1 01:11:12 36° SW 01:11:55 42° W 01:15:08 10° NNW
BREEZE-M TANK 2.8 01:04:53 10° W 01:12:30 53° S 01:14:27 21° ESE
MOS 1-B Rocket 3.8 01:09:26 27° SSE 01:12:37 88° ENE 01:18:20 10° NNW
Cosmos 1340 Rocket 3.7 01:10:47 25° SW 01:12:39 42° WNW 01:16:26 10° N
SL-8 Rocket 4.4 01:09:52 25° SSE 01:13:25 53° E 01:19:32 10° NNE
Cosmos 1943 3.4 01:08:30 10° NW 01:14:05 58° WSW 01:16:47 30° S
USA 234 4.0 01:07:46 10° E 01:14:06 55° NNE 01:20:28 10° WNW
Okean 2 Rocket 3.8 01:13:33 29° SE 01:15:21 43° E 01:19:37 10° NNE
Cosmos 1606 2.8 01:13:30 10° NNW 01:17:22 65° W 01:18:33 40° SSW
Cosmos 1408 2.8 01:20:05 41° SSE 01:21:10 60° E 01:24:53 10° NNE
NOSS 3-2 (C) 4.1 01:16:24 10° NW 01:23:42 62° SW 01:28:49 23° SSE
Cosmos 1975 Rocket 3.0 01:19:57 10° N 01:24:22 85° E 01:26:09 35° SSE
Okean 3 3.5 01:24:18 10° NNW 01:28:39 77° W 01:30:18 37° S
Cosmos 2218 Rocket 4.3 01:25:53 26° SSE 01:29:29 58° E 01:35:43 10° NNE
BREEZE-M DEB (TANK) 4.4 01:25:18 10° WSW 01:29:45 82° SSE 01:47:29 10° E
Cosmos 1867 3.9 01:27:41 10° NW 01:32:59 50° WSW 01:35:19 30° S
Cosmos 1908 Rocket 3.7 01:33:46 32° SSW 01:35:38 63° WNW 01:39:59 10° N
Cosmos 2366 rocket 4.3 01:35:10 25° SSE 01:38:42 59° E 01:44:48 10° NNE
H-2A R/B 3.6 01:35:20 10° N 01:39:18 39° WNW 01:41:44 21° SW
Meteor 1-27 Rocket 4.3 01:36:09 10° NNW 01:41:45 48° W 01:44:38 26° SSW
Helios 1A Rocket 3.2 01:38:24 10° N 01:42:33 63° WNW 01:44:24 31° SW
NOSS 3-2 (A) 4.5 01:37:29 10° NW 01:44:23 42° WSW 01:48:28 25° S
RESURS DK-1 2.6 01:43:06 37° S 01:44:25 56° ESE 01:48:31 10° NE
Cosmos 1242 Rocket 2.8 01:42:17 10° N 01:45:46 61° ENE 01:46:59 36° SE
Cosmos 1689 Rocket 4.3 01:47:18 17° WSW 01:47:45 17° W 01:50:01 10° NW
CZ-2C R/B 3.2 01:44:52 27° SSE 01:48:08 85° WSW 01:53:40 10° NNW
NOSS 3-4 (A) 3.5 01:45:31 22° SW 01:49:55 84° SE 01:56:37 10° NE
NOSS 3-4 (C) 3.5 01:45:38 22° SW 01:50:00 83° SE 01:56:42 10° NE
Abrixas rocket 2.7 01:51:24 41° SE 01:51:24 41° SE 01:54:15 10° E
Cosmos 1825 2.4 01:51:08 36° SW 01:52:27 58° WNW 01:56:15 10° N
Cosmos 1862 3.9 01:53:33 29° SW 01:55:11 47° WNW 01:59:07 10° N
Cosmos 44 4.5 01:50:26 10° WSW 01:55:38 46° NW 02:00:55 10° NNE
Cosmos 1727 Rocket 4.0 01:52:23 10° N 01:58:39 89° W 02:02:29 25° S
Meteor 1-14 Rocket 4.4 02:00:40 26° S 02:04:04 73° E 02:09:54 10° NNE
Cosmos 1190 Rocket 3.9 01:59:15 10° NNW 02:04:29 79° WSW 02:07:30 26° SSE
Cosmos 1812 3.5 02:04:07 10° N 02:07:54 46° ENE 02:10:08 22° SE
EROS-A1 4.5 02:13:04 50° N 02:13:04 50° N 02:14:44 10° NNW
Cosmos 2151 Rocket 3.6 02:12:57 31° S 02:15:03 78° E 02:19:34 10° NNE
Cosmos 407 Rocket 3.4 02:10:54 10° NNW 02:16:05 78° WSW 02:19:17 24° SSE
BREEZE-M DEB (TANK) 3.6 02:02:20 10° WSW 02:17:10 77° SSE 02:21:09 10° E
Cosmos 1844 Rocket 3.7 02:14:45 20° SSE 02:17:53 36° ESE 02:23:01 10° NE
Okean 1-7 Rocket 4.5 02:15:17 10° N 02:19:44 47° ENE 02:23:12 16° SE
Cosmos 1371 Rocket 4.1 02:17:19 26° SSW 02:20:28 76° WNW 02:25:51 10° NNE
PSLV R/B 4.2 02:16:57 10° NNE 02:21:01 45° E 02:23:10 24° SSE
Cosmos 2056 Rocket 3.5 02:18:12 27° SSW 02:21:06 85° ESE 02:26:22 10° NNE
PSLV R/B 4.4 02:20:05 31° SSW 02:21:31 45° W 02:25:27 10° NNW
Meteor 1-18 Rocket 4.2 02:16:26 10° NNW 02:22:08 85° W 02:25:56 22° S
Cosmos 2263 Rocket 2.6 02:18:19 20° SW 02:22:14 60° WNW 02:27:53 10° NNE
SL-27 R/B 2.5 02:22:58 10° NNW 02:26:37 66° WSW 02:28:01 34° S
Geosat 4.4 02:24:09 10° NNE 02:29:07 59° NW 02:32:35 19° SW
Cosmos 676 Rocket 3.9 02:23:55 10° NNW 02:29:08 79° WSW 02:32:42 20° SSE
Cosmos 489 Rocket 4.5 02:23:15 10° NNW 02:29:34 85° ENE 02:35:12 13° SSE
Iridium 4 Rocket 3.4 02:26:02 10° N 02:30:49 81° W 02:33:53 25° S
ATLAS 5 CENTAUR R/B 2.7 02:25:04 10° NW 02:30:53 67° NE 02:37:09 10° SE
CZ-2C R/B 3.4 02:27:41 10° N 02:32:33 41° WNW 02:35:56 18° SW
CZ-4C R/B 4.3 02:28:54 10° WNW 02:33:29 18° WSW 02:35:54 16° SW
Gbstr 26 Del rocket 3.7 02:34:20 28° S 02:35:16 32° SE 02:38:41 10° E
Cosmos 1184 Rocket 3.8 02:34:47 27° WSW 02:35:59 36° WNW 02:39:09 10° N
Meteor 2-19 Rocket 4.5 02:35:51 23° SSW 02:39:51 77° W 02:46:04 10° N
GP-B 3.6 02:40:33 10° N 02:44:57 55° E 02:48:07 18° SSE
CRYOSAT 2 4.5 02:45:25 10° N 02:50:15 66° W 02:53:11 23° SSW
Cosmos 2278 Rocket 3.4 02:46:24 15° SSE 02:50:23 33° ESE 02:55:25 10° NE
Meteor 1-13 Rocket 4.4 02:45:38 10° N 02:51:22 78° ENE 02:56:39 13° SSE
Cosmos 1954 Rocket 4.0 02:48:06 10° NNW 02:53:14 65° WSW 02:57:03 18° S
CENTAUR R/B 3.1 02:47:10 10° NW 02:54:43 59° WSW 03:02:47 10° SSE
Okean 1 3.4 02:51:38 10° NNW 02:55:36 61° W 02:57:44 25° SSW
COSMOS 2406 3.9 02:50:49 10° NW 02:56:04 37° WSW 02:59:12 21° SSW
USA 234 3.2 02:50:27 10° SE 02:56:59 77° SW 03:03:34 10° WNW
Landsat 4 3.8 02:58:19 25° S 03:00:21 59° WSW 03:04:09 10° NNW
Cosmos 1300 Rocket 3.5 02:59:55 23° SSW 03:02:34 82° W 03:06:59 10° N
Cosmos 2123 Rocket 4.2 02:57:29 10° N 03:03:52 75° E 03:10:11 10° SSE
Cosmos 1821 Rocket 4.1 02:58:55 17° S 03:03:57 79° E 03:10:22 10° NNE
Cosmos 2082 Rocket 3.3 02:59:01 10° NNW 03:04:32 46° NE 03:10:00 10° SE
Cosmos 1602 4.3 03:03:13 18° SSE 03:05:52 50° E 03:09:36 10° NNE
Meteor 2-21 4.5 03:01:18 18° S 03:06:00 81° E 03:12:10 10° NNE
Cosmos 1174 4.5 03:04:44 10° NNW 03:08:39 50° NE 03:11:54 10° ESE
Cosmos 1023 Rocket 4.4 03:06:53 10° NNW 03:11:57 66° WSW 03:16:33 12° S
NPP 3.8 03:07:20 10° NNE 03:12:45 75° ESE 03:17:00 17° S
Cosmos 1461 3.7 03:10:23 19° S 03:13:23 46° ESE 03:17:46 10° NE
USA 161 3.0 03:11:16 10° SE 03:14:00 37° ENE 03:16:50 10° N
SL-16 R/B 3.4 03:11:44 10° SE 03:17:44 52° ENE 03:23:43 10° N
ERS-2 2.5 03:14:04 10° NNE 03:17:45 58° ESE 03:20:25 18° S
Cosmos 1892 Rocket 3.9 03:17:16 10° N 03:21:38 64° ENE 03:25:55 10° SSE
RESURS DK-1 4.3 03:19:33 10° W 03:22:50 22° NW 03:26:08 10° N
ARIANE 5 R/B 3.8 03:18:27 10° NNE 03:23:01 34° E 03:27:34 10° SSE
CZ-2D R/B 3.8 03:18:54 10° NE 03:23:36 29° E 03:28:17 10° SSE
Meteor 2-4 Rocket 3.7 03:19:01 10° N 03:24:27 77° ENE 03:29:47 10° SSE
Cosmos 1452 Rocket 3.7 03:22:47 18° SW 03:26:44 64° WNW 03:31:59 10° NNE
Abrixas rocket 2.1 03:24:36 10° W 03:27:59 76° S 03:31:20 10° E
BREEZE-M DEB (TANK) 3.8 03:23:58 10° W 03:28:00 82° SSW 03:44:15 10° ESE
Cosmos 1356 4.3 03:27:25 13° SSE 03:30:23 46° E 03:33:49 10° NNE
Cosmos 1315 Rocket 4.4 03:28:19 10° SSE 03:31:55 31° E 03:35:30 10° NNE
Cosmos 1420 Rocket 4.1 03:29:35 16° SSW 03:33:49 84° ESE 03:39:09 10° NNE
Cosmos 1140 Rocket 3.9 03:29:21 10° NW 03:34:14 43° WSW 03:38:34 13° S
CBERS-1 4.0 03:29:19 10° NNE 03:34:29 86° WNW 03:38:53 14° SSW
SL-08 R/B 3.8 03:32:06 15° S 03:36:02 47° W 03:40:45 10° NNW
Cosmos 1833 Rocket 3.2 03:34:27 10° NNW 03:40:03 63° ENE 03:45:37 10° SE
SME Rocket 3.9 03:36:20 10° SE 03:40:07 56° ENE 03:44:59 10° N
IRS-1C 4.2 03:35:04 10° NNE 03:40:27 88° ESE 03:45:19 13° SSW
AQUA 3.9 03:37:44 10° N 03:42:30 72° WNW 03:46:33 14° SSW
COSMOS 2487 3.6 03:42:25 10° NW 03:45:34 28° WSW 03:47:45 16° SSW
NOSS 2-2 (D) 3.7 03:43:30 15° SW 03:47:00 88° SE 03:52:11 10° NE
Cosmos 1602 Rocket 4.5 03:46:56 10° N 03:51:10 49° ENE 03:55:24 10° SSE
Okean 1 Rocket 4.2 03:48:44 14° SW 03:52:05 32° WNW 03:56:09 10° N
Resurs 1-4 Rocket 2.9 03:48:46 10° NNE 03:53:56 48° E 03:59:02 10° S
Cosmos 1025 Rocket 3.6 03:52:06 10° NNW 03:56:07 39° W 03:59:51 12° SSW
ADEOS 3.6 03:51:36 10° NNE 03:56:52 81° WNW 04:02:00 10° SSW
Cosmos 1633 2.6 03:54:40 13° SSW 03:57:46 65° WNW 04:01:26 10° N
Cosmos 1536 3.1 03:55:49 13° SSW 03:59:20 57° WNW 04:03:21 10° N
OPS 6432 4.2 03:58:21 14° SW 04:01:02 82° NW 04:04:12 10° NE
NOSS 2-2 (C) 3.9 03:57:34 12° SW 04:01:29 73° NW 04:06:44 10° NE
Cosmos 1844 Rocket 3.4 03:56:24 11° SW 04:01:41 45° NW 04:07:09 10° NNE
Okean 2 3.5 04:00:39 10° NNW 04:04:42 59° W 04:08:44 10° S
Cosmos 1934 Rocket 4.5 04:00:39 12° SW 04:06:15 46° WNW 04:12:08 10° N
Cosmos 2263 Rocket 4.4 04:03:49 10° WNW 04:07:24 17° NNW 04:11:00 10° N
Cosmos 1626 Rocket 3.8 04:03:18 10° N 04:07:41 71° ENE 04:12:05 10° SSE
EO 1 Del DPAF 3.2 04:04:38 10° S 04:08:31 76° WSW 04:12:26 10° NNW
Cosmos 1455 Rocket 3.1 04:08:11 10° S 04:12:39 85° W 04:17:07 10° N
Okean O Rocket 3.4 04:08:56 10° NE 04:12:43 28° E 04:16:28 10° SSE
ATLAS 5 CENTAUR R/B 3.1 04:10:09 10° WNW 04:15:23 32° WSW 04:20:55 10° S
Spot 4 Rocket 4.2 04:13:32 10° N 04:18:38 62° WNW 04:23:42 10° SSW
Gbstr 26 Del rocket 2.7 04:17:56 10° WSW 04:21:53 79° NNW 04:25:37 10° ENE
MTI 3.8 04:19:07 10° SSE 04:22:25 83° WSW 04:25:44 10° NNW
UNK 4.1 04:26:49 10° S 04:31:19 49° W 04:35:52 10° NNW
DNEPR-1 R/B 4.1 04:26:23 10° NW 04:32:12 62° WSW 04:36:55 10° SSE
Cosmos 2278 Rocket 2.8 04:28:49 10° SW 04:34:18 49° NW 04:39:50 10° NNE
Cosmos 2297 3.8 04:32:20 10° SSW 04:38:01 78° WNW 04:43:47 10° NNE
